Weather History for Fargo, ND

Change the Weather History Date:

Wednesday, October 23, 2013

  Actual Average Record
Temperature  
Mean Temperature 36 °F 42 °F  
Max Temperature 40 °F 52 °F 80 °F (1963)
Min Temperature 32 °F 33 °F 5 °F (1917)
Degree Days  
Heating Degree Days 29 23  
Month to date heating degree days 394 407  
Since 1 July heating degree days 519 677  
Cooling Degree Days 0 0  
Month to date cooling degree days 0 0  
Year to date cooling degree days 699 548  
Moisture  
Dew Point 25 °F    
Average Humidity 65    
Maximum Humidity 82    
Minimum Humidity 48    
Precipitation  
Precipitation T in 0.06 in 1.80 in (1902)
Month to date precipitation 4.17 1.73  
Year to date precipitation 30.48 20.36  
Snow  
Snow T in 0.00 in 1.50 in (1936)
Month to date snowfall T 0.3  
Since 1 July snowfall T 0.3  
Since 1 September snowfall T 0.3  
Snow Depth 0.00 in    
Sea Level Pressure  
Sea Level Pressure 30.13 in    
Wind  
Wind Speed 9 mph (NW)    
Max Wind Speed 20 mph    
Max Gust Speed 23 mph    
Visibility 10 miles    
Events Snow    
T = Trace of Precipitation, MM = Missing Value Source: NWS Daily Summary

Daily Weather History Graph

Daily Weather History Graph

Search for Another Location

Airport:

Trip Planner

Search our weather history database for the weather conditions in past years. The results will help you decide how hot, cold, wet, or windy it might be!

Date:

Astronomy

Oct. 23, 2013 Rise Set
Actual Time 7:57 AM CDT 6:25 PM CDT
Civil Twilight 7:25 AM CDT 6:56 PM CDT
Nautical Twilight 6:50 AM CDT 7:31 PM CDT
Astronomical Twilight 6:15 AM CDT 8:06 PM CDT
Moon 9:48 PM CDT (10/23) 12:24 PM CDT (10/23)
Length of Visible Light 11h 30m
Length of Day
10h 28m
Waning Gibbous, 79% of the Moon is Illuminated
Oct 23
Waning Gibbous
Oct 26
Last Quarter
Nov 3
New
Nov 9
First Quarter
Nov 17
Full

Hourly Weather History & Observations

Time (CDT) Temp. Windchill Dew Point Humidity Pressure Visibility Wind Dir Wind Speed Gust Speed Precip Events Conditions
12:53 AM 34.0 °F 28.8 °F 25.0 °F 70% 30.08 in 10.0 mi WNW 5.8 mph - N/A   Overcast
1:53 AM 34.0 °F 27.2 °F 24.1 °F 67% 30.08 in 10.0 mi NNW 8.1 mph - N/A   Overcast
2:53 AM 34.0 °F 28.8 °F 23.0 °F 64% 30.08 in 10.0 mi NW 5.8 mph - N/A   Overcast
3:53 AM 33.1 °F 26.9 °F 23.0 °F 66% 30.07 in 10.0 mi WNW 6.9 mph - N/A   Overcast
4:53 AM 33.1 °F 25.5 °F 23.0 °F 66% 30.07 in 10.0 mi NNW 9.2 mph - N/A   Overcast
5:53 AM 32.0 °F 27.5 °F 24.1 °F 73% 30.08 in 10.0 mi NW 4.6 mph - N/A   Overcast
6:53 AM 32.0 °F 28.7 °F 24.1 °F 73% 30.09 in 10.0 mi WNW 3.5 mph - N/A   Overcast
7:53 AM 32.0 °F 24.8 °F 23.0 °F 69% 30.10 in 10.0 mi NW 8.1 mph - N/A   Overcast
8:53 AM 33.1 °F 25.5 °F 23.0 °F 66% 30.12 in 10.0 mi NNW 9.2 mph - N/A   Overcast
9:53 AM 35.1 °F 28.6 °F 23.0 °F 61% 30.13 in 10.0 mi NNW 8.1 mph - N/A   Overcast
10:53 AM 37.0 °F 28.9 °F 21.0 °F 52% 30.13 in 10.0 mi NNW 12.7 mph 21.9 mph N/A   Partly Cloudy
11:53 AM 39.0 °F 30.6 °F 21.9 °F 50% 30.14 in 10.0 mi North 15.0 mph 21.9 mph N/A   Scattered Clouds
12:53 PM 39.0 °F 30.6 °F 21.9 °F 50% 30.14 in 10.0 mi NNW 15.0 mph - N/A   Overcast
1:53 PM 39.9 °F 31.4 °F 23.0 °F 51% 30.13 in 10.0 mi NNW 16.1 mph - N/A   Overcast
2:53 PM 39.0 °F 31.0 °F 23.0 °F 53% 30.13 in 10.0 mi NNW 13.8 mph 20.7 mph N/A   Overcast
3:53 PM 37.9 °F 29.6 °F 24.1 °F 57% 30.15 in 10.0 mi North 13.8 mph - N/A   Overcast
4:53 PM 37.9 °F 30.0 °F 25.0 °F 60% 30.16 in 10.0 mi North 12.7 mph - N/A   Overcast
5:53 PM 37.0 °F 30.4 °F 26.1 °F 65% 30.17 in 10.0 mi North 9.2 mph - N/A   Overcast
6:53 PM 36.0 °F 33.3 °F 25.0 °F 64% 30.17 in 10.0 mi NNE 3.5 mph - N/A   Overcast
7:53 PM 34.0 °F - 26.1 °F 73% 30.19 in 10.0 mi Calm Calm - N/A   Overcast
8:46 PM 35.6 °F 31.7 °F 28.4 °F 75% 30.15 in 2.0 mi WNW 4.6 mph - 0.00 in Snow Light Snow
8:53 PM 35.1 °F 30.1 °F 28.9 °F 78% 30.19 in 4.0 mi WNW 5.8 mph - 0.00 in Snow Light Snow
9:24 PM 35.6 °F 30.7 °F 30.2 °F 81% 30.15 in 10.0 mi WNW 5.8 mph - 0.00 in   Overcast
9:53 PM 35.1 °F 30.1 °F 30.0 °F 82% 30.19 in 10.0 mi WNW 5.8 mph - 0.00 in   Overcast
10:25 PM 35.6 °F 29.9 °F 30.2 °F 81% 30.16 in 10.0 mi WNW 6.9 mph - N/A   Overcast
10:42 PM 35.6 °F 29.9 °F 30.2 °F 81% 30.16 in 10.0 mi WNW 6.9 mph - N/A   Overcast
10:53 PM 35.1 °F 29.3 °F 30.0 °F 82% 30.19 in 10.0 mi WNW 6.9 mph - N/A   Overcast
11:53 PM 35.1 °F 30.1 °F 30.9 °F 85% 30.20 in 10.0 mi NW 5.8 mph - 0.00 in   Overcast